User: anonymous   Login
Location: Unspecified
(0.0000°N, 0.0000°E)
Time: 17:58:50
(UTC+00:00)
Language:

Aussat K1 - Orbit

View from above orbital plane
View from above orbital plane
View from above satellite
View from above satellite

Ground track
Ground track

The orbit data is extracted from the following two-line orbital elements,

1 15993U 85076B   16241.43228199  .00000047  00000-0  00000+0 0  9995
2 15993  15.2681  10.3895 0004969 238.4902 114.9656  0.99758330 83865
Epoch (UTC): 28 August 2016 10:22:29
Eccentricity: 0.0004969
inclination: 15.2681°
perigee height: 35910 km
apogee height: 35952 km
right ascension of ascending node: 10.3895°
argument of perigee: 238.4902°
revolutions per day: 0.99758330
mean anomaly at epoch: 114.9656°
orbit number at epoch: 8386

The dashed part of the orbit path shows where the satellite is in the earth's shadow,  

DLR